Location: Omaha
(41.2590°N, 95.9380°W)
Time: 08:39:39
(UTC-05:00)

OTV 5 (USA 277) - Pass Details

Date: 10 October 2017
Orbit: 404 x 417 km, 43.0° (Epoch: 07 September)

Event Time Altitude Azimuth Distance (km) Brightness Sun altitude
Rises 20:15:56 0° 240° (WSW) 2,347 ? -16.9°
Reaches altitude 10° 20:18:04 10° 236° (SW) 1,486 ? -17.3°
Maximum altitude 20:21:21 54° 158° (SSE) 509 ? -17.9°
Enters shadow 20:21:37 52° 136° (SE) 521 ? -18.0°
